Find Kosmos-1261

NORAD ID: 12376 Int'l Des: 1981-031 Owner: PVO Country: SU operational
MEOELLIPTICALHEO_ELLIPTICALSEMI_SYNC

实时位置

正在加载3D地球...

关于 Kosmos-1261

正在加载描述...

即将过境

Passes for default location (London). Set your location on the main map for personalized predictions.

高度历史

Loading altitude history...

两行轨道根数

1 12376U 81031A 26106.27721248 -.00000070 00000-0 00000+0 0 9997
2 12376 68.8093 93.0615 5890697 352.2466 1.5139 2.00771194226236
Epoch: Apr 16, 2026 • Age: 18 hours

当前状态

高度 35759.6 km
速度 1.98 km/s
星下点 5.28°N, 54.51°E
发射日期 Mar 31, 1981
运行时间 45 years
类型 other

技术详情

分类 Payload
质量 1250.00 kg
干质量 1150.00 kg
总质量 1250.00 kg
长度 4.00 m
直径 2.00 m
跨度 5.00 m
形状 Cyl + 2 Pan
制造商 NPOL/KOMET
平台类型 Oko
阶段状态 In Orbit
所有者/国家 PVO/SU

Most Searched